Regional Weather Roundup
Issued by NWS

Home | Current Version | Previous Version | Text Only | Print | Product List | Glossary On
Versions: 1 2 3 4 5 6 7 8 9 10 11 12 13 14 15 16 17 18 19 20 21 22 23 24 25 26 27 28 29 30 31 32 33 34 35 36 37 38 39 40 41 42 43 44 45 46 47 48 49 50
000
ASUS43 KLMK 211710
RWRKY
KENTUCKY REGIONAL WEATHER ROUNDUP
NATIONAL WEATHER SERVICE LOUISVILLE KY
100 PM EDT SUN MAY 21 2017

NOTE "FAIR" INDICATES FEW OR NO CLOUDS BELOW 12,000 FEET
WITH NO SIGNIFICANT WEATHER AND/OR OBSTRUCTIONS TO VISIBILITY.

KYZ001>023-026-027-061>063-070>075-211800-
WESTERN AND SOUTH CENTRAL KENTUCKY

CITY           SKY/WX    TMP DP  RH WIND       PRES   REMARKS
PADUCAH        SUNNY     74  52  46 NW8       30.06S
HENDERSON      CLOUDY    70  58  65 W9        30.06S
OWENSBORO      CLOUDY    72  64  76 W6        30.04F
HOPKINSVILLE   PTSUNNY   77  67  72 W8        30.05S
BOWLING GREEN  CLOUDY    76  69  79 W10       30.06F
GLASGOW        CLOUDY    77  68  73 SW7       30.06F
$$

KYZ024-025-028>034-038-045-046-053-211800-
NORTH CENTRAL KENTUCKY

CITY           SKY/WX    TMP DP  RH WIND       PRES   REMARKS
LOUISVILLE/SDF CLOUDY    77  68  73 S10G18    30.02F
LOUISVILLE/LOU CLOUDY    76  69  79 S14       30.03F
FORT KNOX      PTSUNNY   75  68  78 S9        30.02F
$$

KYZ035>037-039>044-047>052-055>060-089>105-211800-
NORTHEAST KENTUCKY

CITY           SKY/WX    TMP DP  RH WIND       PRES   REMARKS
LEXINGTON      CLOUDY    71  66  84 S7        30.07F
COVINGTON      CLOUDY    72  67  84 S13       30.03S
FRANKFORT      CLOUDY    72  65  78 SW9       30.04F
$$

KYZ054-064>069-076>088-106>120-211800-
SOUTHEAST KENTUCKY

CITY           SKY/WX    TMP DP  RH WIND       PRES   REMARKS
JACKSON        LGT RAIN  68  66  93 CALM      30.12F
LONDON         CLOUDY    71  63  75 S9        30.11F
SOMERSET       CLOUDY    72  64  78 S3        30.10F
MIDDLESBORO    DRIZZLE   68  65  90 S3        30.14F
MONTICELLO     NOT AVBL
$$





USA.gov is the U.S. government's official web portal to all federal, state and local government web resources and services.